Location: Beuerbach
(48.1459°N, 10.9174°E)
Time: 02:00:24
(UTC+00:00)

SL-16 R/B - Pass Details

Date: 23 May 2024
Orbit: 985 x 1006 km, 99.7° (Epoch: 13 June)

Event Time Altitude Azimuth Distance (km) Brightness Sun altitude
Rises 01:47:18 0° 163° (SSE) 3,719 5.2 -13.0°
Reaches altitude 10° 01:49:45 10° 164° (SSE) 2,775 4.5 -12.8°
Maximum altitude 01:56:02 85° 254° (WSW) 1,017 2.6 -12.2°
Drops below altitude 10° 02:02:20 10° 343° (NNW) 2,793 5.4 -11.5°
Sets 02:04:50 0° 344° (NNW) 3,746 6.1 -11.2°
